Location: Unspecified
(42.9300°N, 71.1866°W)
Time: 20:05:05
(UTC-04:00)

Okean 3 - Visible Passes

Search period start: 29 July 2015 00:00
Search period end: 08 August 2015 00:00
Orbit: 579 x 606 km, 82.5° (Epoch: 29 July)

Date Brightness Start Highest point End Pass type
(mag) Time Alt. Az. Time Alt. Az. Time Alt. Az.
29 Jul 6.3 21:42:41 10° NW 21:45:16 15° W 21:47:40 10° WSW visible
01 Aug 4.6 20:31:13 10° NNW 20:35:22 48° W 20:39:30 10° SSW visible
02 Aug 5.5 20:40:30 10° NNW 20:44:20 31° W 20:48:07 10° SSW visible
03 Aug 6.2 20:49:57 10° NW 20:53:15 21° W 20:56:27 10° SW visible
04 Aug 6.5 20:59:46 10° NW 21:02:10 14° W 21:04:21 10° WSW visible
